Regional Weather Roundup
Issued by NWS Green Bay, WI

Home | Current Version | Previous Version | Text Only | Print | Product List | Glossary On
Versions: 1 2 3 4 5 6 7 8 9 10 11 12 13 14 15 16 17 18 19 20 21 22 23 24 25 26 27 28 29 30 31 32 33 34 35 36 37 38 39 40 41 42 43 44 45 46 47 48 49 50
000
ASUS43 KGRB 290810
RWRGRB

NORTH-CENTRAL AND NORTHEAST WISCONSIN REGIONAL WEATHER ROUNDUP
NATIONAL WEATHER SERVICE GREEN BAY WI
300 AM CDT SUN MAR 29 2015

WIZ005-009-010>012-018-019-290900-
NORTH CENTRAL WISCONSIN

CITY           SKY/WX    TMP DP  RH WIND       PRES   REMARKS
IRONWOOD       CLOUDY    34  14  44 S18G26    29.80F
MANITOWISH WTR CLOUDY    31  15  50 S14G22    29.86F
ARBOR VITAE    CLOUDY    32  16  51 S15G21    29.88F
EAGLE RIVER    MOCLDY    31  11  44 SW10G17   29.89F
LAND O LAKES   MOCLDY    31  14  48 S10       29.88F
RHINELANDER    CLOUDY    31  13  47 S14G23    29.92F
PHILLIPS       MOCLDY    31  14  49 S14       29.88F
ANTIGO         MOCLDY    29  16  57 S14       29.97F
TOMAHAWK       CLOUDY    30  15  53 CALM      29.94F
MERRILL        CLOUDY    32  14  48 SW12G18   29.96F
$$

WIZ013-073-290900-
NORTHEAST WISCONSIN

CITY           SKY/WX    TMP DP  RH WIND       PRES   REMARKS
IRON MOUNTAIN  MOCLDY    29  13  51 S12       29.95F
MARINETTE      PTCLDY    28  19  69 SW12G17   30.05F
OCONTO         MOCLDY    29  17  60 S8        30.06F
$$

WIZ017-030-035>037-045-290900-
CENTRAL WISCONSIN

CITY           SKY/WX    TMP DP  RH WIND       PRES   REMARKS
MEDFORD        MOCLDY    30  16  56 S13G21    29.94F
WAUSAU         CLOUDY    32  14  47 S16G24    29.97F
MOSINEE        CLOUDY    32  14  47 S15G23    29.99F
MARSHFIELD     CLOUDY    31  15  52 S13       29.97F
WISC RAPIDS    CLOUDY    32  11  41 S10       30.02F
STEVENS POINT  CLOUDY    30  13  49 S13G18    30.01F
WAUPACA        MOCLDY    33  15  47 S10       30.05F
SHAWANO        CLOUDY    33  17  50 SW6G17    30.04F
CLINTONVILLE   MOCLDY    32  18  55 S9        30.05F
$$

WIZ038-039-048-051-290900-
FOX VALLEY

CITY           SKY/WX    TMP DP  RH WIND       PRES   REMARKS
NWS GREEN BAY  MOCLDY    29  20  69 S9        30.07F
APPLETON       MOCLDY    30  18  59 S14       30.06F
OSHKOSH        MOCLDY    30  16  56 S17       30.07F
FOND DU LAC    MOCLDY    31  15  52 S20G25    30.08F
$$

WIZ022-050-052-290900-
EAST CENTRAL WISCONSIN

CITY           SKY/WX    TMP DP  RH WIND       PRES   REMARKS
STURGEON BAY   PTCLDY    28  16  59 S13       30.09F
MANITOWOC      PTCLDY    28  17  63 S12       30.12F
SHEBOYGAN      MOCLDY    27  15  61 S13       30.12F
$$

LMZ563-521-522-541>543-290900-
LAKESHORE

STATION/POSITION TIME  TEMP    WIND        PRES    VSBY  WAVE
                       AIR SEA DIR/SP/G                  HT/PER
                 (UTC) (F)     (DEG/KT/KT) (MB)    (MI)  (FT/S)
SHEBOYGAN LKSHOR 0800   31     190/ 18/ 20 1021.0F
NORTHPORT PIER   0800   30     180/  6/ 19 1017.9F
SISTER BAY LKSHO 0700   29     200/ 14/ 17   N/A
CHAMBERS ISLAND  0800   28     170/  8/ 16 1018.3F
$$


USA.gov is the U.S. government's official web portal to all federal, state and local government web resources and services.